KN4RPA Weather Reports


time (UTC)temp
F
wind
direction
speed
knots
gust
knots
rain 1hr
in
rain 24hr
in
rain mn
in
humidity
%
barometer
mb
20260831003021 76 40 0.0 0.0 0.00 0.01 0.01 76 1017.2
20260831001520 76 40 0.0 0.0 0.01 0.01 0.01 76 1017.0
20260831000020 77 40 0.0 0.0 0.01 0.01 0.01 74 1017.0
20260830234520 78 40 0.0 0.0 0.01 0.01 0.01 71 1017.2
20260830233019 79 38 0.0 1.7 0.01 0.01 0.01 65 1017.3
20260830231518 81 45 2.6 7.8 0.00 0.00 0.00 60 1017.8
20260830230018 82 59 1.7 7.8 0.00 0.00 0.00 63 1017.7
20260830224517 83 161 0.0 0.0 0.00 0.00 0.00 64 1017.2
20260830223017 83 161 0.0 0.0 0.00 0.00 0.00 63 1016.9
20260830221516 83 161 0.0 0.0 0.00 0.00 0.00 63 1016.7
20260830220020 84 161 0.0 0.9 0.00 0.00 0.00 61 1016.7
20260830214515 84 161 0.0 2.6 0.00 0.00 0.00 60 1016.6
20260830213015 85 161 0.0 0.9 0.00 0.00 0.00 60 1016.7
20260830211514 85 161 0.0 2.6 0.00 0.00 0.00 58 1016.7
20260830210014 85 161 0.9 5.2 0.00 0.00 0.00 58 1016.6
20260830204512 86 160 0.0 7.0 0.00 0.00 0.00 58 1016.7
20260830203027 86 159 0.0 7.0 0.00 0.00 0.00 58 1016.7
20260830201511 86 160 0.0 1.7 0.00 0.00 0.00 59 1017.1
20260830200015 85 160 0.9 7.8 0.00 0.00 0.00 59 1017.1
20260830194507 85 158 0.0 2.6 0.00 0.00 0.00 59 1017.3
20260830193008 85 158 0.0 7.0 0.00 0.00 0.00 60 1017.4
20260830191505 85 157 0.0 4.3 0.00 0.00 0.00 60 1017.6
20260830184558 85 157 0.9 5.2 0.00 0.00 0.00 59 1018.5
20260830183056 85 157 0.9 6.1 0.00 0.00 0.00 59 1018.7
20260830181554 84 157 0.0 5.2 0.00 0.00 0.00 62 1018.7
20260830180054 84 157 0.0 5.2 0.00 0.00 0.00 64 1019.0
20260830174557 83 157 0.0 4.3 0.00 0.00 0.00 65 1019.4
20260830173105 83 156 0.9 7.0 0.00 0.00 0.00 63 1019.5
20260830171546 83 158 0.0 2.6 0.00 0.00 0.00 64 1019.7
20260830170043 81 158 0.0 2.6 0.00 0.00 0.00 68 1019.9
20260830164541 81 158 0.0 0.9 0.00 0.00 0.00 69 1020.1
20260830163041 79 158 0.0 1.7 0.00 0.00 0.00 71 1020.3
20260830161537 79 158 0.0 7.0 0.00 0.00 0.00 70 1020.5
20260830160036 81 158 0.0 6.1 0.00 0.00 0.00 69 1020.6
20260830154533 80 159 0.0 1.7 0.00 0.00 0.00 73 1020.7
20260830153033 78 159 0.0 4.3 0.00 0.00 0.00 74 1020.8
20260830151529 78 183 0.0 3.5 0.00 0.00 0.00 75 1020.8
20260830150033 78 184 0.0 4.3 0.00 0.00 0.00 78 1020.7
20260830144533 77 186 0.0 3.5 0.00 0.00 0.00 82 1020.5
20260830143034 76 192 0.0 2.6 0.00 0.00 0.00 86 1020.7
20260830141518 75 192 0.0 3.5 0.00 0.00 0.00 89 1020.8
20260830140014 74 204 0.0 3.5 0.00 0.00 0.00 91 1020.8
20260830134513 74 205 0.0 3.5 0.00 0.00 0.00 92 1020.7
20260830133007 73 205 0.0 0.9 0.00 0.00 0.00 92 1020.9
20260830131502 72 206 0.0 2.6 0.00 0.00 0.00 93 1021.0
20260830130101 72 206 0.0 3.5 0.00 0.00 0.00 93 1021.1
20260830124557 71 206 0.0 1.7 0.00 0.00 0.00 93 1021.1
20260830123106 71 206 0.0 0.9 0.00 0.00 0.00 93 1021.2
20260830121553 70 206 0.0 1.7 0.00 0.00 0.00 93 1021.6
20260830120052 70 206 0.0 2.6 0.00 0.00 0.00 93 1021.7
20260830114607 69 206 0.0 0.0 0.00 0.00 0.00 93 1021.7
20260830113045 69 206 0.0 0.0 0.00 0.00 0.00 93 1021.5
20260830111543 69 206 0.0 0.0 0.00 0.00 0.00 92 1021.3
20260830110042 69 206 0.0 0.0 0.00 0.00 0.00 92 1021.1
20260830104543 69 206 0.0 0.0 0.00 0.00 0.00 92 1021.1
20260830103049 69 206 0.0 0.0 0.00 0.00 0.00 92 1021.1
20260830101539 69 206 0.0 0.0 0.00 0.00 0.00 92 1021.1
20260830074559 69 206 0.0 0.0 0.00 0.00 0.00 89 1021.0
20260830073104 69 206 0.0 0.0 0.00 0.00 0.00 89 1021.1
20260830071620 69 206 0.0 0.0 0.00 0.00 0.00 89 1021.1
20260830070056 69 206 0.0 0.0 0.00 0.00 0.00 88 1021.1
20260830064556 69 206 0.0 0.9 0.00 0.00 0.00 88 1021.2
20260830063054 69 206 0.0 0.0 0.00 0.00 0.00 87 1021.3
20260830061555 69 206 0.0 0.0 0.00 0.00 0.00 86 1021.3
20260830060055 68 206 0.0 0.0 0.00 0.00 0.00 86 1021.4
20260830054549 68 206 0.0 0.0 0.00 0.00 0.00 85 1021.5
20260830053048 68 206 0.0 0.0 0.00 0.00 0.00 85 1021.6
20260830051548 68 206 0.0 0.0 0.00 0.00 0.00 84 1021.6
20260830050047 68 206 0.0 0.0 0.00 0.00 0.00 83 1021.6
20260830044614 68 206 0.0 0.0 0.00 0.00 0.00 83 1021.8
20260830043044 68 206 0.0 0.0 0.00 0.00 0.00 82 1021.8
20260830041546 69 206 0.0 0.0 0.00 0.00 0.00 82 1021.7
20260830040055 69 206 0.0 0.0 0.00 0.00 0.00 81 1021.5
20260830034543 69 206 0.0 0.0 0.00 0.00 0.00 80 1021.4
20260830033053 69 206 0.0 0.0 0.00 0.00 0.00 79 1021.2
20260830031542 70 206 0.0 0.0 0.00 0.00 0.00 79 1021.0
20260830030042 70 206 0.0 0.0 0.00 0.00 0.00 78 1021.1
20260830024540 70 206 0.0 0.0 0.00 0.00 0.00 77 1021.1
20260830023040 71 206 0.0 0.0 0.00 0.00 0.00 76 1021.2
20260830021543 71 206 0.0 0.0 0.00 0.00 0.00 74 1021.3
20260830020040 72 206 0.0 0.0 0.00 0.00 0.00 74 1021.1
20260830014539 72 206 0.0 0.0 0.00 0.00 0.00 73 1020.8
20260830013108 73 206 0.0 0.0 0.00 0.00 0.00 72 1020.6
20260830011606 73 206 0.0 0.0 0.00 0.00 0.00 71 1020.7
20260830010045 74 206 0.0 0.0 0.00 0.00 0.00 69 1020.5
20260830004544 74 206 0.0 0.0 0.00 0.00 0.00 68 1020.3